Tracking 25710 objects as of 6-Jul-2022
HD Live streaming from Space Station
objects crossing your sky now

SPACEBEE-136

Track SPACEBEE-136 now!
10-day predictions


NORAD ID: 52164
Int'l Code: 2022-033H
Perigee: 497.5 km
Apogee: 507.7 km
Inclination: 97.4 °
Period: 94.5 minutes
Semi major axis: 6873 km
RCS: Unknown
Launch date: April 1, 2022
Source: United States (US)
Launch site: AIR FORCE EASTERN TEST RANGE (AFETR)
aabbcc
Your satellite tracking list
Your tracking list is empty




NASA's NSSDC Master Catalog

Two Line Element Set (TLE):
1 52164U 22033H   22186.51754401  .00007777  00000-0  32909-3 0  9998
2 52164  97.3803 267.6499 0007395 320.0392  40.0300 15.23440878 14437
Source of the keplerian elements: AFSPC